Weather in Balykcha

Russia / Altai Republic     51°17′12″N   87°43′08″E
temp.,
°C
wind,
m/s
gust,
m/s
humid.,
%
clouds,
%
prec.,
mm/h
press.,
hPa
HPBL,
m
18 april, sun
sun1801:00−3ssw0192100 0.1 1021152
04:00−4s239498 0.0 102082
07:00−3ssw128944 0.0 101968
10:00+5wsw254540 0.1 10151822
13:00+6w393699 0.1 10132574
16:00+7w4102961 0.0 10122579
19:00+5w3640100 0.0 10131317
22:000sw22606 0.0 101618
19 april, mon
mon1901:00−2ssw33610 0.0 101661
04:00−2s3565100 0.0 101584
07:000s486489 0.0 1012284
10:00+7sw51645100 0.0 10052521
13:00−5nnw4791100 5.4 1016406
16:00−4n3486100 1.9 1017566
19:00−5nnw3588100 2.9 1018485
22:00−8nnw2494100 0.9 1019341
20 april, tue
tue2001:00−9nnw2495100 4.6 1019384
04:00−9nnw2495100 1.7 1019382
07:00−10nnw2492100 2.6 1020391
10:00−8nnw2381100 0.3 1019824
13:00−5n3374100 0.5 10171014
16:00−6nnw4475100 0.1 10181039
19:00−8nnw3585100 0.3 1021655
22:00−11nnw2597100 0.1 1025238
21 april, wed
wed2101:00−14nnw139995 0.1 102764
04:00−18w009992 0.1 102910
07:00−16sse119687 0.1 102849
10:00−6sse116811 0.0 1022583
13:00−2nne115944 0.0 10171199
16:00−1n225699 0.1 10141400
19:00−5nnw3587100 0.2 1018548
22:00−8nnw2597100 0.1 1022276
22 april, thu
thu2201:00−9nnw2496100 0.3 1023300
04:00−9nnw2494100 0.4 1024350
07:00−9nnw2491100 0.9 1026412
10:00−6nnw3378100 0.4 1026976
13:00−4nnw3372100 0.8 10261308
16:00−4nnw4471100 0.3 10271246
19:00−6nnw3582100 0.5 1030773
22:00−7nnw2496100 0.3 1034288